Wind_Speed
17 17 17 18 18 18 19 19 20 20 20 20 20 21 21 21 21 21 20 20 20 20 21 22 22 22 22 22 23 23 23 24 24 23 23 22 22 23
19 18 18 18 19 19 19 19 20 20 20 20 21 22 22 22 22 21 21 21 21 21 22 22 22 22 23 23 23 23 23 24 25 24 24 23 23 23
20 20 20 19 20 20 20 20 21 21 21 21 22 23 23 23 23 23 22 22 22 22 22 22 23 23 24 24 24 24 24 25 25 25 25 25 24 24
22 22 22 22 22 22 22 22 22 22 22 22 23 23 24 24 24 24 24 24 23 23 23 23 24 24 24 25 25 24 24 25 25 26 26 25 25 25
23 23 23 24 24 24 24 24 24 24 24 24 24 24 25 25 26 25 25 24 24 24 24 24 24 24 24 24 25 25 25 25 26 26 26 26 27 26
24 24 25 25 26 26 26 25 26 26 26 25 25 25 25 26 27 26 25 25 25 25 25 25 25 25 25 25 26 26 26 27 27 26 26 26 27 27
26 26 27 27 27 27 27 28 27 27 27 27 27 27 27 27 27 27 27 27 27 27 26 26 26 26 27 27 27 28 28 27 27 27 27 27 27 27
27 27 27 27 28 28 27 28 28 27 27 28 29 28 28 28 27 27 27 27 27 27 27 27 27 27 27 27 27 28 28 28 28 28 28 27 27 27
27 27 26 27 28 28 29 29 29 29 29 29 29 29 29 28 27 27 26 27 27 27 27 28 28 28 28 27 27 28 28 28 28 28 28 28 28 27
26 27 27 28 28 29 29 29 30 30 30 29 29 29 29 29 28 27 28 27 27 28 28 28 28 28 28 28 28 29 29 28 28 28 28 28 28 28
27 27 27 28 28 29 29 30 30 30 29 30 29 28 29 29 29 28 27 27 27 27 28 28 27 28 28 29 29 29 29 29 30 29 29 29 29 29
26 26 26 27 27 28 28 29 29 29 28 28 27 27 27 27 27 27 27 27 27 27 27 27 27 28 28 28 28 29 29 29 29 29 29 29 29 29
26 26 26 26 26 26 27 28 28 27 27 27 27 27 27 27 27 27 27 28 27 26 27 27 27 27 27 27 28 29 29 28 28 29 29 29 28 29
26 26 26 26 25 26 26 25 26 26 27 27 27 27 27 26 26 27 28 28 26 26 26 27 27 27 27 27 27 27 28 28 28 28 28 28 28 28
26 26 26 25 25 25 25 25 25 25 26 26 26 26 26 26 26 26 26 27 26 26 26 27 27 26 26 26 26 27 27 27 27 27 27 27 28 28
26 25 25 25 25 25 25 25 25 25 25 26 26 26 26 26 26 26 27 27 27 26 27 27 26 26 26 25 25 26 26 26 27 27 27 26 27 27
25 25 26 26 26 26 25 25 25 25 26 26 26 26 26 26 27 27 27 27 27 27 27 27 26 26 26 26 26 25 26 26 26 26 26 26 26 26
25 25 25 25 26 26 26 26 26 26 26 26 26 26 26 27 27 26 26 26 26 27 27 27 27 26 27 28 27 26 27 27 27 26 26 26 26 25
26 25 25 25 26 26 27 27 27 27 27 27 26 26 27 27 27 27 26 26 26 26 26 26 27 28 28 29 29 27 26 26 27 27 26 26 26 24
25 25 25 26 26 27 27 28 27 28 28 27 27 27 27 27 27 27 27 27 27 27 27 28 28 28 28 28 28 27 27 26 26 25 25 26 25 24
25 26 26 26 26 27 28 28 28 28 28 28 27 27 27 27 27 28 28 28 28 28 27 28 28 27 27 27 27 27 26 26 25 24 24 24 23 23
26 27 28 28 28 28 28 28 28 28 28 28 28 28 28 28 27 27 26 26 26 27 27 27 27 26 26 26 26 26 26 26 25 24 23 23 23 23
27 28 29 29 29 30 29 28 28 27 27 28 28 27 26 26 26 25 25 26 26 26 27 26 26 26 26 27 27 26 25 25 25 25 24 24 24 24
Wind_Direction
288 289 290 290 289 288 285 283 282 282 281 280 283 284 285 286 288 287 284 281 280 279 280 280 278 276 277 277 276 277 278 278 280 279 278 276 273 272
288 288 289 289 288 287 287 286 284 283 282 281 281 282 283 284 286 286 283 281 280 279 279 279 277 276 276 278 279 278 279 280 281 280 279 278 276 275
290 289 290 290 290 289 289 288 286 285 283 281 282 283 283 283 283 283 283 281 281 281 280 279 277 277 277 278 279 279 280 280 280 280 280 278 277 276
287 288 288 288 288 287 287 287 287 286 285 284 284 283 283 283 282 280 280 279 279 280 280 279 279 279 278 278 278 277 278 278 279 279 278 278 279 277
287 286 286 285 285 286 286 285 285 285 285 284 285 284 283 282 281 280 278 277 277 278 278 277 278 278 278 277 276 276 278 278 279 279 279 278 279 280
286 284 283 283 284 284 284 284 284 283 284 284 284 285 286 285 281 279 278 276 277 277 277 277 277 278 278 278 277 276 277 278 278 278 278 278 279 279
286 283 282 281 281 282 282 282 282 282 282 283 283 284 286 285 283 279 277 276 277 278 278 277 277 278 279 279 278 278 278 278 278 277 278 277 278 278
287 285 282 281 280 280 282 282 283 282 282 282 283 283 285 284 283 281 279 277 277 278 278 279 279 278 278 279 279 279 278 277 277 277 278 277 276 276
288 286 285 283 281 281 281 282 281 282 282 283 283 283 284 284 284 284 282 280 279 279 279 278 278 278 277 278 278 279 278 277 277 277 276 275 274 274
292 288 286 285 282 282 282 282 283 283 284 284 284 283 283 283 284 284 282 280 279 279 279 279 278 278 278 278 279 280 279 278 278 277 274 273 273 272
294 293 290 287 284 282 281 281 282 283 284 286 286 286 285 284 283 283 282 280 280 280 279 278 278 278 279 279 279 278 277 277 277 276 273 271 271 270
295 294 293 291 287 285 284 284 284 284 285 286 287 288 286 285 283 282 282 280 280 279 279 279 279 279 280 279 280 279 278 278 277 275 273 271 270 270
294 293 294 294 291 288 286 285 285 286 288 288 287 288 288 286 285 283 283 284 283 282 283 282 281 282 282 280 281 281 279 279 277 274 272 272 269 269
295 295 295 295 293 289 288 288 287 287 287 288 289 288 288 288 288 286 286 286 283 284 286 285 284 283 282 281 282 281 280 279 278 276 273 271 269 269
295 295 295 295 293 291 290 290 290 291 290 290 290 290 289 288 289 289 289 288 285 285 285 285 285 285 283 282 282 282 282 281 280 278 274 270 269 268
296 295 294 293 293 293 291 290 290 291 291 292 291 290 289 289 289 288 289 291 289 286 285 284 284 284 284 282 281 283 282 281 281 280 276 273 272 270
295 295 293 293 292 292 291 291 291 291 292 292 292 290 288 288 289 289 289 290 289 286 284 284 284 283 282 281 282 282 282 281 280 279 275 273 273 271
294 294 295 295 295 293 291 290 290 290 291 292 290 289 289 289 288 288 289 289 289 286 284 283 282 282 282 283 281 279 279 279 279 279 275 272 271 270
292 293 293 294 295 295 292 291 289 288 290 291 289 288 289 290 289 288 289 289 288 285 285 285 284 285 284 283 282 280 278 277 277 278 276 272 269 269
293 293 293 294 295 295 293 292 290 288 288 289 290 289 288 289 288 287 287 287 287 287 286 285 284 285 284 283 281 278 276 276 276 276 275 273 270 268
294 294 295 295 296 296 294 292 290 288 288 288 288 288 288 289 289 288 288 288 288 289 288 287 287 285 284 282 281 279 275 273 273 273 272 273 270 268
294 294 295 295 296 297 296 292 289 288 289 288 288 287 288 289 288 287 288 290 291 291 291 290 289 287 284 282 281 279 275 271 268 268 270 271 270 267
294 295 295 295 296 297 295 292 291 290 290 289 288 288 288 288 288 289 289 289 291 291 291 290 288 286 285 282 279 277 273 271 269 268 268 269 270 269
Height
5877 5875 5874 5872 5871 5870 5868 5867 5865 5864 5863 5861 5860 5859 5858 5856 5855 5853 5853 5852 5851 5850 5849 5849 5848 5848 5848 5847 5846 5846 5846 5845 5845 5844 5844 5844 5843 5843
5872 5870 5869 5868 5866 5864 5863 5861 5860 5858 5857 5856 5855 5853 5852 5851 5849 5848 5847 5846 5845 5845 5844 5843 5843 5842 5842 5841 5841 5840 5840 5839 5839 5838 5838 5838 5837 5836
5866 5865 5864 5862 5861 5859 5858 5856 5854 5853 5852 5851 5849 5848 5846 5845 5844 5842 5841 5840 5840 5839 5838 5838 5837 5836 5836 5835 5835 5834 5834 5833 5833 5832 5831 5831 5831 5830
5861 5859 5858 5857 5855 5854 5852 5850 5849 5847 5846 5844 5843 5842 5840 5839 5837 5836 5835 5834 5834 5833 5832 5831 5831 5830 5830 5829 5828 5828 5827 5827 5826 5826 5825 5825 5824 5824
5854 5853 5852 5851 5849 5847 5846 5844 5843 5841 5840 5838 5837 5835 5834 5832 5831 5830 5828 5828 5827 5826 5826 5825 5824 5824 5823 5822 5822 5821 5820 5820 5819 5819 5818 5818 5817 5817
5848 5846 5845 5844 5842 5841 5840 5838 5836 5835 5833 5832 5830 5828 5827 5825 5823 5822 5822 5821 5820 5819 5819 5818 5817 5817 5816 5815 5815 5814 5813 5813 5812 5812 5811 5811 5810 5809
5841 5839 5838 5837 5835 5834 5832 5831 5829 5828 5826 5825 5823 5821 5820 5818 5816 5815 5814 5814 5813 5812 5811 5811 5810 5809 5809 5808 5807 5806 5806 5805 5805 5804 5804 5803 5803 5802
5834 5832 5831 5829 5828 5827 5825 5823 5822 5820 5819 5817 5815 5814 5812 5810 5809 5807 5806 5806 5805 5805 5803 5803 5802 5801 5801 5800 5799 5798 5798 5797 5797 5796 5796 5795 5795 5795
5826 5824 5823 5821 5820 5819 5817 5816 5814 5812 5811 5809 5808 5806 5805 5803 5802 5800 5799 5798 5797 5797 5796 5795 5794 5793 5792 5792 5791 5790 5790 5789 5789 5788 5788 5787 5787 5787
5818 5817 5815 5813 5812 5810 5809 5807 5806 5804 5803 5801 5800 5798 5797 5795 5794 5792 5791 5790 5789 5788 5787 5787 5786 5785 5784 5783 5783 5782 5781 5781 5780 5779 5779 5779 5779 5779
5811 5809 5807 5806 5804 5802 5800 5799 5798 5796 5795 5793 5792 5790 5788 5787 5786 5785 5783 5782 5781 5781 5779 5778 5778 5777 5776 5775 5774 5774 5773 5772 5771 5771 5771 5771 5771 5770
5804 5802 5800 5798 5796 5794 5792 5791 5789 5788 5787 5785 5783 5782 5780 5779 5778 5777 5776 5775 5774 5773 5771 5770 5770 5769 5768 5767 5766 5765 5764 5763 5763 5762 5762 5762 5762 5761
5797 5795 5793 5790 5788 5786 5784 5783 5782 5780 5779 5777 5775 5774 5773 5771 5770 5769 5768 5767 5766 5765 5763 5762 5761 5760 5759 5759 5757 5756 5755 5754 5754 5753 5753 5753 5753 5753
5790 5788 5786 5783 5781 5779 5777 5775 5774 5772 5771 5769 5768 5766 5765 5763 5762 5761 5760 5759 5757 5757 5755 5754 5753 5752 5751 5750 5749 5748 5746 5746 5745 5744 5744 5744 5744 5744
5783 5781 5779 5776 5774 5772 5770 5768 5767 5765 5764 5762 5760 5759 5757 5756 5754 5753 5752 5751 5749 5748 5747 5746 5745 5744 5743 5742 5741 5740 5739 5738 5737 5736 5736 5735 5735 5735
5775 5773 5771 5769 5767 5765 5763 5761 5759 5758 5756 5754 5753 5751 5749 5748 5747 5746 5744 5743 5742 5740 5739 5738 5737 5736 5734 5733 5732 5731 5730 5729 5728 5728 5727 5726 5726 5726
5768 5766 5764 5762 5760 5758 5756 5754 5752 5750 5749 5747 5745 5743 5742 5740 5739 5738 5736 5735 5733 5732 5731 5730 5728 5727 5726 5725 5724 5723 5722 5721 5720 5719 5719 5718 5718 5718
5761 5759 5757 5755 5753 5751 5748 5747 5745 5743 5741 5739 5737 5735 5734 5732 5730 5729 5728 5726 5725 5723 5722 5721 5720 5719 5718 5717 5716 5715 5713 5713 5712 5711 5710 5710 5710 5709
5754 5751 5749 5747 5745 5743 5740 5738 5737 5735 5733 5731 5729 5727 5726 5724 5722 5721 5719 5717 5716 5715 5713 5712 5711 5710 5708 5707 5706 5705 5705 5704 5703 5702 5702 5702 5701 5701
5746 5743 5742 5739 5737 5734 5732 5730 5728 5726 5724 5722 5721 5719 5717 5715 5714 5712 5711 5709 5708 5706 5705 5703 5702 5700 5698 5697 5696 5695 5695 5694 5694 5694 5693 5693 5693 5693
5738 5736 5734 5731 5729 5726 5724 5721 5719 5717 5715 5713 5712 5710 5708 5707 5705 5704 5702 5701 5699 5697 5696 5694 5692 5690 5688 5687 5686 5686 5685 5685 5685 5685 5685 5685 5685 5685
5731 5728 5726 5723 5721 5718 5715 5712 5710 5708 5706 5705 5703 5702 5700 5698 5697 5695 5693 5692 5690 5689 5687 5685 5683 5681 5680 5678 5677 5677 5676 5676 5676 5676 5677 5677 5676 5677
5723 5721 5718 5715 5712 5709 5706 5704 5701 5699 5698 5696 5694 5693 5691 5690 5688 5686 5685 5683 5682 5680 5678 5676 5674 5672 5670 5669 5668 5668 5667 5668 5668 5668 5669 5668 5669 5669